Location: Unspecified
(17.6330°N, 0.0000°E)
Time: 17:57:20
(UTC+00:00)

S-56A Canister/Altair - Pass Details

Date: 03 July 2019
Orbit: 632 x 2500 km, 38.9° (Epoch: 20 July)

Event Time Altitude Azimuth Distance (km) Brightness Sun altitude
Rises 07:14:17 0° 189° (S) 5,532 11.6 22.5°
Reaches altitude 10° 07:19:19 10° 173° (S) 4,796 11.5 23.6°
Maximum altitude 07:28:20 20° 132° (SE) 4,311 11.9 25.7°
Drops below altitude 10° 07:37:50 10° 92° (E) 5,148 13.1 27.8°
Sets 07:43:24 0° 78° (ENE) 6,064 13.3 29.1°
